Overview Statistics Trail Chart Weather Telemetry Raw packets
 

This is the latest recevied weather packets stored in our database for station/object K7DC. If no packets are shown the sender has not sent any weather packets the latest 10 day(s).

<< 9 10 11 12 13 14 15 >>
Time Temp. Humidity Pressure Rain* Wind** Luminosity Snow
1788573783 31.67° C 37% 1014.2 hPa 0 mm - 0 W/m² -
1788573482 32.22° C 37% 1014 hPa 0 mm - 0 W/m² -
1788573176 32.22° C 36% 1014.2 hPa 0 mm - 1 W/m² -
1788572875 32.78° C 35% 1014 hPa 0 mm - 2 W/m² -
1788572571 32.78° C 35% 1014.1 hPa 0 mm - 5 W/m² -
1788572267 32.78° C 34% 1014 hPa 0 mm - 8 W/m² -
1788571963 33.33° C 34% 1014 hPa 0 mm - 12 W/m² -
1788571658 33.33° C 34% 1013.8 hPa 0 mm - 15 W/m² -
1788571353 33.33° C 34% 1013.9 hPa 0 mm - 20 W/m² -
1788571050 33.33° C 34% 1013.9 hPa 0 mm - 26 W/m² -
1788570746 33.33° C 35% 1013.8 hPa 0 mm - 34 W/m² -
1788570446 33.33° C 35% 1013.9 hPa 0 mm - 39 W/m² -
1788570141 33.33° C 34% 1013.7 hPa 0 mm - 40 W/m² -
1788569838 33.89° C 35% 1014 hPa 0 mm - 43 W/m² -
1788569534 33.89° C 33% 1014 hPa 0 mm - 53 W/m² -
1788569233 34.44° C 32% 1013.9 hPa 0 mm - 56 W/m² -
1788568929 35° C 31% 1013.5 hPa 0 mm - 58 W/m² -
1788568623 35° C 31% 1013.8 hPa 0 mm - 85 W/m² -
1788568319 35.56° C 30% 1013.9 hPa 0 mm - 78 W/m² -
1788568015 36.11° C 29% 1013.7 hPa 0 mm - 52 W/m² -
1788567714 36.11° C 28% 1013.8 hPa 0 mm - 109 W/m² -
1788567409 36.67° C 27% 1013.5 hPa 0 mm - 120 W/m² -
1788567109 36.67° C 26% 1013.8 hPa 0 mm - 127 W/m² -
1788566804 36.67° C 26% 1013.5 hPa 0 mm - 136 W/m² -
1788566500 36.67° C 26% 1013.7 hPa 0 mm - 147 W/m² -

* Rain latest hour (hover to see other rain measurements)
** Current wind speed in m/s (hover to see current wind gust speed)